Year,Month,Day,Hour,Minute,Value (Times are PST for insolation in W/m^2)
2021,05,12,00,00,0.00
2021,05,12,00,01,0.00
2021,05,12,00,02,0.00
2021,05,12,00,03,0.00
2021,05,12,00,04,0.00
2021,05,12,00,05,0.00
2021,05,12,00,06,0.00
2021,05,12,00,07,0.00
2021,05,12,00,08,0.00
2021,05,12,00,09,0.00
2021,05,12,00,10,0.00
2021,05,12,00,11,0.00
2021,05,12,00,12,0.00
2021,05,12,00,13,0.00
2021,05,12,00,14,0.00
2021,05,12,00,15,0.00
2021,05,12,00,16,0.00
2021,05,12,00,17,0.00
2021,05,12,00,18,0.00
2021,05,12,00,19,0.00
2021,05,12,00,20,0.00
2021,05,12,00,21,0.00
2021,05,12,00,22,0.00
2021,05,12,00,23,0.00
2021,05,12,00,24,0.00
2021,05,12,00,25,0.00
2021,05,12,00,26,0.00
2021,05,12,00,27,0.00
2021,05,12,00,28,0.00
2021,05,12,00,29,0.00
2021,05,12,00,30,0.00
2021,05,12,00,31,0.00
2021,05,12,00,32,0.00
2021,05,12,00,33,0.00
2021,05,12,00,34,0.00
2021,05,12,00,35,0.00
2021,05,12,00,36,0.00
2021,05,12,00,37,0.00
2021,05,12,00,38,0.00
2021,05,12,00,39,0.00
2021,05,12,00,40,0.00
2021,05,12,00,41,0.00
2021,05,12,00,42,0.00
2021,05,12,00,43,0.00
2021,05,12,00,44,0.00
2021,05,12,00,45,0.00
2021,05,12,00,46,0.00
2021,05,12,00,47,0.00
2021,05,12,00,48,0.00
2021,05,12,00,49,0.00
2021,05,12,00,50,0.00
2021,05,12,00,51,0.00
2021,05,12,00,52,0.00
2021,05,12,00,53,0.00
2021,05,12,00,54,0.00
2021,05,12,00,55,0.00
2021,05,12,00,56,0.00
2021,05,12,00,57,0.00
2021,05,12,00,58,0.00
2021,05,12,00,59,0.00
2021,05,12,01,00,0.00
2021,05,12,01,01,0.00
2021,05,12,01,02,0.00
2021,05,12,01,03,0.00
2021,05,12,01,04,0.00
2021,05,12,01,05,0.00
2021,05,12,01,06,0.00
2021,05,12,01,07,0.00
2021,05,12,01,08,0.00
2021,05,12,01,09,0.00
2021,05,12,01,10,0.00
2021,05,12,01,11,0.00
2021,05,12,01,12,0.00
2021,05,12,01,13,0.00
2021,05,12,01,14,0.00
2021,05,12,01,15,0.00
2021,05,12,01,16,0.00
2021,05,12,01,17,0.00
2021,05,12,01,18,0.00
2021,05,12,01,19,0.00
2021,05,12,01,20,0.00
2021,05,12,01,21,0.00
2021,05,12,01,22,0.00
2021,05,12,01,23,0.00
2021,05,12,01,24,0.00
2021,05,12,01,25,0.00
2021,05,12,01,26,0.00
2021,05,12,01,27,0.00
2021,05,12,01,28,0.00
2021,05,12,01,29,0.00
2021,05,12,01,30,0.00
2021,05,12,01,31,0.00
2021,05,12,01,32,0.00
2021,05,12,01,33,0.00
2021,05,12,01,34,0.00
2021,05,12,01,35,0.00
2021,05,12,01,36,0.00
2021,05,12,01,37,0.00
2021,05,12,01,38,0.00
2021,05,12,01,39,0.00
2021,05,12,01,40,0.00
2021,05,12,01,41,0.00
2021,05,12,01,42,0.00
2021,05,12,01,43,0.00
2021,05,12,01,44,0.00
2021,05,12,01,45,0.00
2021,05,12,01,46,0.00
2021,05,12,01,47,0.00
2021,05,12,01,48,0.00
2021,05,12,01,49,0.00
2021,05,12,01,50,0.00
2021,05,12,01,51,0.00
2021,05,12,01,52,0.00
2021,05,12,01,53,0.00
2021,05,12,01,54,0.00
2021,05,12,01,55,0.00
2021,05,12,01,56,0.00
2021,05,12,01,57,0.00
2021,05,12,01,58,0.00
2021,05,12,01,59,0.00
2021,05,12,02,00,0.00
2021,05,12,02,01,0.00
2021,05,12,02,02,0.00
2021,05,12,02,03,0.00
2021,05,12,02,04,0.00
2021,05,12,02,05,0.00
2021,05,12,02,06,0.00
2021,05,12,02,07,0.00
2021,05,12,02,08,0.00
2021,05,12,02,09,0.00
2021,05,12,02,10,0.00
2021,05,12,02,11,0.00
2021,05,12,02,12,0.00
2021,05,12,02,13,0.00
2021,05,12,02,14,0.00
2021,05,12,02,15,0.00
2021,05,12,02,16,0.00
2021,05,12,02,17,0.00
2021,05,12,02,18,0.00
2021,05,12,02,19,0.00
2021,05,12,02,20,0.00
2021,05,12,02,21,0.00
2021,05,12,02,22,0.00
2021,05,12,02,23,0.00
2021,05,12,02,24,0.00
2021,05,12,02,25,0.00
2021,05,12,02,26,0.00
2021,05,12,02,27,0.00
2021,05,12,02,28,0.00
2021,05,12,02,29,0.00
2021,05,12,02,30,0.00
2021,05,12,02,31,0.00
2021,05,12,02,32,0.00
2021,05,12,02,33,0.00
2021,05,12,02,34,0.00
2021,05,12,02,35,0.00
2021,05,12,02,36,0.00
2021,05,12,02,37,0.00
2021,05,12,02,38,0.00
2021,05,12,02,39,0.00
2021,05,12,02,40,0.00
2021,05,12,02,41,0.00
2021,05,12,02,42,0.00
2021,05,12,02,43,0.00
2021,05,12,02,44,0.00
2021,05,12,02,45,0.00
2021,05,12,02,46,0.00
2021,05,12,02,47,0.00
2021,05,12,02,48,0.00
2021,05,12,02,49,0.00
2021,05,12,02,50,0.00
2021,05,12,02,51,0.00
2021,05,12,02,52,0.00
2021,05,12,02,53,0.00
2021,05,12,02,54,0.00
2021,05,12,02,55,0.00
2021,05,12,02,56,0.00
2021,05,12,02,57,0.00
2021,05,12,02,58,0.00
2021,05,12,02,59,0.00
2021,05,12,03,00,0.00
2021,05,12,03,01,0.00
2021,05,12,03,02,0.00
2021,05,12,03,03,0.00
2021,05,12,03,04,0.00
2021,05,12,03,05,0.00
2021,05,12,03,06,0.00
2021,05,12,03,07,0.00
2021,05,12,03,08,0.00
2021,05,12,03,09,0.00
2021,05,12,03,10,0.00
2021,05,12,03,11,0.00
2021,05,12,03,12,0.00
2021,05,12,03,13,0.00
2021,05,12,03,14,0.00
2021,05,12,03,15,0.00
2021,05,12,03,16,0.00
2021,05,12,03,17,0.00
2021,05,12,03,18,0.00
2021,05,12,03,19,0.00
2021,05,12,03,20,0.00
2021,05,12,03,21,0.00
2021,05,12,03,22,0.00
2021,05,12,03,23,0.00
2021,05,12,03,24,0.00
2021,05,12,03,25,0.00
2021,05,12,03,26,0.00
2021,05,12,03,27,0.00
2021,05,12,03,28,0.00
2021,05,12,03,29,0.00
2021,05,12,03,30,0.00
2021,05,12,03,31,0.00
2021,05,12,03,32,0.00
2021,05,12,03,33,0.00
2021,05,12,03,34,0.00
2021,05,12,03,35,0.00
2021,05,12,03,36,0.00
2021,05,12,03,37,0.00
2021,05,12,03,38,0.00
2021,05,12,03,39,0.00
2021,05,12,03,40,0.00
2021,05,12,03,41,0.00
2021,05,12,03,42,0.00
2021,05,12,03,43,0.00
2021,05,12,03,44,0.00
2021,05,12,03,45,0.00
2021,05,12,03,46,0.00
2021,05,12,03,47,0.00
2021,05,12,03,48,0.00
2021,05,12,03,49,0.00
2021,05,12,03,50,0.00
2021,05,12,03,51,0.00
2021,05,12,03,52,0.00
2021,05,12,03,53,0.00
2021,05,12,03,54,0.00
2021,05,12,03,55,0.00
2021,05,12,03,56,0.00
2021,05,12,03,57,0.00
2021,05,12,03,58,0.00
2021,05,12,03,59,0.00
2021,05,12,04,00,0.00
2021,05,12,04,01,0.00
2021,05,12,04,02,0.00
2021,05,12,04,03,0.00
2021,05,12,04,04,0.00
2021,05,12,04,05,0.00
2021,05,12,04,06,0.00
2021,05,12,04,07,0.00
2021,05,12,04,08,0.00
2021,05,12,04,09,0.00
2021,05,12,04,10,0.00
2021,05,12,04,11,0.00
2021,05,12,04,12,0.00
2021,05,12,04,13,0.00
2021,05,12,04,14,0.00
2021,05,12,04,15,0.00
2021,05,12,04,16,0.00
2021,05,12,04,17,0.00
2021,05,12,04,18,0.00
2021,05,12,04,19,0.00
2021,05,12,04,20,0.00
2021,05,12,04,21,0.00
2021,05,12,04,22,0.00
2021,05,12,04,23,0.00
2021,05,12,04,24,0.00
2021,05,12,04,25,0.00
2021,05,12,04,26,0.00
2021,05,12,04,27,0.00
2021,05,12,04,28,0.00
2021,05,12,04,29,0.00
2021,05,12,04,30,0.00
2021,05,12,04,31,0.00
2021,05,12,04,32,0.00
2021,05,12,04,33,0.00
2021,05,12,04,34,0.00
2021,05,12,04,35,0.00
2021,05,12,04,36,0.00
2021,05,12,04,37,0.00
2021,05,12,04,38,0.00
2021,05,12,04,39,0.00
2021,05,12,04,40,0.00
2021,05,12,04,41,0.00
2021,05,12,04,42,0.00
2021,05,12,04,43,0.00
2021,05,12,04,44,0.00
2021,05,12,04,45,0.00
2021,05,12,04,46,0.00
2021,05,12,04,47,0.00
2021,05,12,04,48,0.00
2021,05,12,04,49,0.00
2021,05,12,04,50,0.00
2021,05,12,04,51,0.00
2021,05,12,04,52,0.00
2021,05,12,04,53,0.00
2021,05,12,04,54,0.00
2021,05,12,04,55,0.00
2021,05,12,04,56,0.00
2021,05,12,04,57,0.00
2021,05,12,04,58,0.00
2021,05,12,04,59,0.00
2021,05,12,05,00,0.00
2021,05,12,05,01,0.00
2021,05,12,05,02,0.00
2021,05,12,05,03,0.00
2021,05,12,05,04,0.00
2021,05,12,05,05,0.00
2021,05,12,05,06,0.00
2021,05,12,05,07,0.00
2021,05,12,05,08,0.00
2021,05,12,05,09,0.00
2021,05,12,05,10,0.00
2021,05,12,05,11,0.00
2021,05,12,05,12,0.00
2021,05,12,05,13,0.00
2021,05,12,05,14,0.00
2021,05,12,05,15,0.00
2021,05,12,05,16,0.00
2021,05,12,05,17,0.00
2021,05,12,05,18,0.00
2021,05,12,05,19,0.00
2021,05,12,05,20,0.00
2021,05,12,05,21,0.00
2021,05,12,05,22,0.00
2021,05,12,05,23,0.00
2021,05,12,05,24,0.00
2021,05,12,05,25,0.00
2021,05,12,05,26,0.00
2021,05,12,05,27,0.00
2021,05,12,05,28,0.00
2021,05,12,05,29,0.00
2021,05,12,05,30,0.00
2021,05,12,05,31,0.00
2021,05,12,05,32,0.00
2021,05,12,05,33,0.00
2021,05,12,05,34,0.00
2021,05,12,05,35,0.00
2021,05,12,05,36,0.00
2021,05,12,05,37,0.00
2021,05,12,05,38,0.00
2021,05,12,05,39,0.00
2021,05,12,05,40,0.00
2021,05,12,05,41,0.00
2021,05,12,05,42,0.00
2021,05,12,05,43,0.00
2021,05,12,05,44,0.00
2021,05,12,05,45,0.00
2021,05,12,05,46,0.00
2021,05,12,05,47,0.00
2021,05,12,05,48,0.00
2021,05,12,05,49,0.00
2021,05,12,05,50,0.00
2021,05,12,05,51,0.00
2021,05,12,05,52,0.00
2021,05,12,05,53,0.00
2021,05,12,05,54,0.00
2021,05,12,05,55,0.00
2021,05,12,05,56,0.00
2021,05,12,05,57,0.00
2021,05,12,05,58,0.00
2021,05,12,05,59,0.00
2021,05,12,06,00,0.00
2021,05,12,06,01,0.00
2021,05,12,06,02,0.00
2021,05,12,06,03,0.00
2021,05,12,06,04,0.00
2021,05,12,06,05,0.00
2021,05,12,06,06,0.00
2021,05,12,06,07,0.00
2021,05,12,06,08,0.00
2021,05,12,06,09,0.00
2021,05,12,06,10,0.00
2021,05,12,06,11,0.00
2021,05,12,06,12,0.00
2021,05,12,06,13,0.00
2021,05,12,06,14,0.00
2021,05,12,06,15,0.00
2021,05,12,06,16,0.00
2021,05,12,06,17,0.00
2021,05,12,06,18,0.00
2021,05,12,06,19,0.00
2021,05,12,06,20,0.00
2021,05,12,06,21,0.00
2021,05,12,06,22,0.00
2021,05,12,06,23,0.00
2021,05,12,06,24,0.70
2021,05,12,06,25,5.00
2021,05,12,06,26,5.00
2021,05,12,06,27,5.00
2021,05,12,06,28,5.00
2021,05,12,06,29,5.00
2021,05,12,06,30,6.10
2021,05,12,06,31,7.00
2021,05,12,06,32,7.00
2021,05,12,06,33,7.00
2021,05,12,06,34,7.00
2021,05,12,06,35,8.70
2021,05,12,06,36,9.00
2021,05,12,06,37,9.10
2021,05,12,06,38,11.00
2021,05,12,06,39,11.00
2021,05,12,06,40,11.00
2021,05,12,06,41,11.00
2021,05,12,06,42,11.00
2021,05,12,06,43,11.00
2021,05,12,06,44,11.00
2021,05,12,06,45,11.00
2021,05,12,06,46,11.00
2021,05,12,06,47,11.00
2021,05,12,06,48,11.00
2021,05,12,06,49,11.00
2021,05,12,06,50,11.00
2021,05,12,06,51,11.00
2021,05,12,06,52,11.00
2021,05,12,06,53,12.00
2021,05,12,06,54,12.00
2021,05,12,06,55,12.40
2021,05,12,06,56,14.50
2021,05,12,06,57,16.00
2021,05,12,06,58,16.00
2021,05,12,06,59,17.00
2021,05,12,07,00,18.00
2021,05,12,07,01,18.00
2021,05,12,07,02,18.70
2021,05,12,07,03,19.00
2021,05,12,07,04,20.50
2021,05,12,07,05,21.00
2021,05,12,07,06,21.00
2021,05,12,07,07,22.90
2021,05,12,07,08,23.00
2021,05,12,07,09,23.30
2021,05,12,07,10,25.00
2021,05,12,07,11,25.30
2021,05,12,07,12,26.00
2021,05,12,07,13,26.90
2021,05,12,07,14,28.00
2021,05,12,07,15,29.00
2021,05,12,07,16,30.00
2021,05,12,07,17,31.30
2021,05,12,07,18,32.80
2021,05,12,07,19,33.00
2021,05,12,07,20,34.60
2021,05,12,07,21,36.80
2021,05,12,07,22,37.10
2021,05,12,07,23,39.00
2021,05,12,07,24,39.10
2021,05,12,07,25,40.00
2021,05,12,07,26,40.00
2021,05,12,07,27,40.00
2021,05,12,07,28,39.60
2021,05,12,07,29,38.00
2021,05,12,07,30,37.00
2021,05,12,07,31,37.00
2021,05,12,07,32,37.00
2021,05,12,07,33,38.40
2021,05,12,07,34,39.80
2021,05,12,07,35,41.60
2021,05,12,07,36,43.80
2021,05,12,07,37,46.90
2021,05,12,07,38,49.20
2021,05,12,07,39,51.00
2021,05,12,07,40,50.50
2021,05,12,07,41,49.00
2021,05,12,07,42,48.10
2021,05,12,07,43,44.40
2021,05,12,07,44,41.00
2021,05,12,07,45,38.40
2021,05,12,07,46,35.80
2021,05,12,07,47,33.70
2021,05,12,07,48,32.30
2021,05,12,07,49,30.40
2021,05,12,07,50,30.00
2021,05,12,07,51,30.00
2021,05,12,07,52,30.00
2021,05,12,07,53,30.00
2021,05,12,07,54,30.30
2021,05,12,07,55,32.00
2021,05,12,07,56,32.30
2021,05,12,07,57,33.70
2021,05,12,07,58,35.00
2021,05,12,07,59,35.00
2021,05,12,08,00,37.00
2021,05,12,08,01,39.60
2021,05,12,08,02,41.30
2021,05,12,08,03,43.40
2021,05,12,08,04,46.40
2021,05,12,08,05,48.70
2021,05,12,08,06,50.80
2021,05,12,08,07,54.00
2021,05,12,08,08,56.40
2021,05,12,08,09,60.40
2021,05,12,08,10,63.80
2021,05,12,08,11,67.80
2021,05,12,08,12,71.30
2021,05,12,08,13,75.80
2021,05,12,08,14,80.80
2021,05,12,08,15,85.60
2021,05,12,08,16,89.80
2021,05,12,08,17,93.70
2021,05,12,08,18,96.40
2021,05,12,08,19,97.80
2021,05,12,08,20,98.00
2021,05,12,08,21,97.10
2021,05,12,08,22,95.10
2021,05,12,08,23,92.70
2021,05,12,08,24,90.00
2021,05,12,08,25,89.60
2021,05,12,08,26,88.00
2021,05,12,08,27,88.70
2021,05,12,08,28,90.40
2021,05,12,08,29,93.90
2021,05,12,08,30,100.70
2021,05,12,08,31,109.10
2021,05,12,08,32,119.70
2021,05,12,08,33,131.20
2021,05,12,08,34,141.50
2021,05,12,08,35,154.30
2021,05,12,08,36,169.60
2021,05,12,08,37,191.00
2021,05,12,08,38,215.00
2021,05,12,08,39,237.00
2021,05,12,08,40,259.30
2021,05,12,08,41,275.10
2021,05,12,08,42,275.70
2021,05,12,08,43,268.10
2021,05,12,08,44,261.10
2021,05,12,08,45,255.40
2021,05,12,08,46,243.50
2021,05,12,08,47,239.70
2021,05,12,08,48,252.40
2021,05,12,08,49,257.00
2021,05,12,08,50,257.00
2021,05,12,08,51,255.20
2021,05,12,08,52,257.90
2021,05,12,08,53,252.50
2021,05,12,08,54,247.40
2021,05,12,08,55,243.30
2021,05,12,08,56,239.60
2021,05,12,08,57,234.00
2021,05,12,08,58,228.10
2021,05,12,08,59,223.20
2021,05,12,09,00,220.50
2021,05,12,09,01,218.90
2021,05,12,09,02,216.70
2021,05,12,09,03,213.90
2021,05,12,09,04,211.50
2021,05,12,09,05,211.00
2021,05,12,09,06,211.00
2021,05,12,09,07,211.00
2021,05,12,09,08,213.00
2021,05,12,09,09,213.10
2021,05,12,09,10,213.80
2021,05,12,09,11,213.20
2021,05,12,09,12,214.00
2021,05,12,09,13,219.20
2021,05,12,09,14,231.30
2021,05,12,09,15,235.60
2021,05,12,09,16,237.00
2021,05,12,09,17,235.10
2021,05,12,09,18,230.40
2021,05,12,09,19,220.60
2021,05,12,09,20,206.50
2021,05,12,09,21,191.30
2021,05,12,09,22,178.00
2021,05,12,09,23,166.10
2021,05,12,09,24,156.70
2021,05,12,09,25,148.00
2021,05,12,09,26,143.40
2021,05,12,09,27,141.70
2021,05,12,09,28,142.10
2021,05,12,09,29,147.00
2021,05,12,09,30,156.80
2021,05,12,09,31,171.70
2021,05,12,09,32,193.20
2021,05,12,09,33,231.30
2021,05,12,09,34,269.70
2021,05,12,09,35,335.00
2021,05,12,09,36,372.90
2021,05,12,09,37,442.40
2021,05,12,09,38,436.90
2021,05,12,09,39,449.40
2021,05,12,09,40,495.00
2021,05,12,09,41,556.40
2021,05,12,09,42,505.00
2021,05,12,09,43,469.40
2021,05,12,09,44,472.00
2021,05,12,09,45,472.00
2021,05,12,09,46,485.10
2021,05,12,09,47,519.30
2021,05,12,09,48,527.00
2021,05,12,09,49,559.80
2021,05,12,09,50,570.00
2021,05,12,09,51,570.00
2021,05,12,09,52,528.10
2021,05,12,09,53,540.00
2021,05,12,09,54,518.90
2021,05,12,09,55,392.00
2021,05,12,09,56,393.00
2021,05,12,09,57,399.30
2021,05,12,09,58,412.50
2021,05,12,09,59,414.40
2021,05,12,10,00,404.40
2021,05,12,10,01,394.40
2021,05,12,10,02,374.60
2021,05,12,10,03,352.00
2021,05,12,10,04,330.00
2021,05,12,10,05,323.40
2021,05,12,10,06,329.30
2021,05,12,10,07,334.00
2021,05,12,10,08,339.60
2021,05,12,10,09,359.60
2021,05,12,10,10,387.00
2021,05,12,10,11,387.00
2021,05,12,10,12,371.00
2021,05,12,10,13,334.70
2021,05,12,10,14,332.30
2021,05,12,10,15,332.90
2021,05,12,10,16,319.10
2021,05,12,10,17,297.00
2021,05,12,10,18,282.10
2021,05,12,10,19,290.60
2021,05,12,10,20,296.60
2021,05,12,10,21,298.80
2021,05,12,10,22,296.60
2021,05,12,10,23,348.50
2021,05,12,10,24,407.70
2021,05,12,10,25,458.50
2021,05,12,10,26,494.00
2021,05,12,10,27,494.00
2021,05,12,10,28,427.70
2021,05,12,10,29,321.00
2021,05,12,10,30,300.10
2021,05,12,10,31,287.80
2021,05,12,10,32,294.90
2021,05,12,10,33,331.80
2021,05,12,10,34,350.20
2021,05,12,10,35,377.40
2021,05,12,10,36,383.00
2021,05,12,10,37,383.00
2021,05,12,10,38,420.50
2021,05,12,10,39,796.00
2021,05,12,10,40,828.50
2021,05,12,10,41,925.80
2021,05,12,10,42,869.20
2021,05,12,10,43,856.80
2021,05,12,10,44,884.00
2021,05,12,10,45,884.00
2021,05,12,10,46,884.00
2021,05,12,10,47,582.40
2021,05,12,10,48,378.60
2021,05,12,10,49,391.10
2021,05,12,10,50,463.60
2021,05,12,10,51,478.00
2021,05,12,10,52,322.80
2021,05,12,10,53,297.00
2021,05,12,10,54,297.00
2021,05,12,10,55,318.60
2021,05,12,10,56,378.90
2021,05,12,10,57,347.80
2021,05,12,10,58,317.20
2021,05,12,10,59,269.40
2021,05,12,11,00,270.40
2021,05,12,11,01,278.90
2021,05,12,11,02,285.00
2021,05,12,11,03,286.40
2021,05,12,11,04,271.80
2021,05,12,11,05,261.30
2021,05,12,11,06,251.90
2021,05,12,11,07,261.40
2021,05,12,11,08,222.50
2021,05,12,11,09,212.10
2021,05,12,11,10,207.00
2021,05,12,11,11,206.20
2021,05,12,11,12,200.30
2021,05,12,11,13,189.20
2021,05,12,11,14,183.00
2021,05,12,11,15,184.60
2021,05,12,11,16,191.30
2021,05,12,11,17,203.00
2021,05,12,11,18,211.90
2021,05,12,11,19,221.00
2021,05,12,11,20,234.10
2021,05,12,11,21,242.30
2021,05,12,11,22,244.30
2021,05,12,11,23,252.00
2021,05,12,11,24,264.40
2021,05,12,11,25,288.10
2021,05,12,11,26,348.10
2021,05,12,11,27,401.00
2021,05,12,11,28,401.00
2021,05,12,11,29,607.70
2021,05,12,11,30,841.00
2021,05,12,11,31,847.00
2021,05,12,11,32,847.00
2021,05,12,11,33,847.00
2021,05,12,11,34,847.00
2021,05,12,11,35,471.40
2021,05,12,11,36,383.00
2021,05,12,11,37,391.60
2021,05,12,11,38,392.00
2021,05,12,11,39,392.00
2021,05,12,11,40,392.00
2021,05,12,11,41,392.00
2021,05,12,11,42,626.80
2021,05,12,11,43,1066.90
2021,05,12,11,44,1079.20
2021,05,12,11,45,1097.40
2021,05,12,11,46,1129.50
2021,05,12,11,47,1093.90
2021,05,12,11,48,1118.40
2021,05,12,11,49,1100.10
2021,05,12,11,50,1024.60
2021,05,12,11,51,1014.00
2021,05,12,11,52,1014.00
2021,05,12,11,53,1014.00
2021,05,12,11,54,1014.00
2021,05,12,11,55,861.00
2021,05,12,11,56,347.00
2021,05,12,11,57,350.30
2021,05,12,11,58,315.50
2021,05,12,11,59,294.70
2021,05,12,12,00,291.00
2021,05,12,12,01,297.30
2021,05,12,12,02,305.70
2021,05,12,12,03,313.00
2021,05,12,12,04,317.30
2021,05,12,12,05,316.30
2021,05,12,12,06,315.10
2021,05,12,12,07,314.90
2021,05,12,12,08,312.80
2021,05,12,12,09,310.70
2021,05,12,12,10,309.00
2021,05,12,12,11,309.00
2021,05,12,12,12,307.30
2021,05,12,12,13,301.30
2021,05,12,12,14,292.90
2021,05,12,12,15,283.30
2021,05,12,12,16,276.00
2021,05,12,12,17,272.70
2021,05,12,12,18,268.40
2021,05,12,12,19,264.70
2021,05,12,12,20,264.00
2021,05,12,12,21,264.90
2021,05,12,12,22,268.80
2021,05,12,12,23,271.10
2021,05,12,12,24,274.70
2021,05,12,12,25,279.90
2021,05,12,12,26,284.10
2021,05,12,12,27,287.30
2021,05,12,12,28,289.60
2021,05,12,12,29,292.00
2021,05,12,12,30,291.00
2021,05,12,12,31,291.20
2021,05,12,12,32,287.30
2021,05,12,12,33,282.10
2021,05,12,12,34,291.70
2021,05,12,12,35,292.50
2021,05,12,12,36,292.00
2021,05,12,12,37,292.00
2021,05,12,12,38,1102.00
2021,05,12,12,39,1102.00
2021,05,12,12,40,1102.00
2021,05,12,12,41,1102.00
2021,05,12,12,42,1105.00
2021,05,12,12,43,1117.40
2021,05,12,12,44,1134.30
2021,05,12,12,45,1152.90
2021,05,12,12,46,1174.00
2021,05,12,12,47,1199.20
2021,05,12,12,48,1213.70
2021,05,12,12,49,1216.00
2021,05,12,12,50,1216.00
2021,05,12,12,51,1216.00
2021,05,12,12,52,700.80
2021,05,12,12,53,597.50
2021,05,12,12,54,546.00
2021,05,12,12,55,541.80
2021,05,12,12,56,510.20
2021,05,12,12,57,515.00
2021,05,12,12,58,451.00
2021,05,12,12,59,410.70
2021,05,12,13,00,385.50
2021,05,12,13,01,365.50
2021,05,12,13,02,349.70
2021,05,12,13,03,334.30
2021,05,12,13,04,322.30
2021,05,12,13,05,314.00
2021,05,12,13,06,304.90
2021,05,12,13,07,295.40
2021,05,12,13,08,289.70
2021,05,12,13,09,286.40
2021,05,12,13,10,282.60
2021,05,12,13,11,281.00
2021,05,12,13,12,280.00
2021,05,12,13,13,277.20
2021,05,12,13,14,274.20
2021,05,12,13,15,271.50
2021,05,12,13,16,268.70
2021,05,12,13,17,265.70
2021,05,12,13,18,265.00
2021,05,12,13,19,265.00
2021,05,12,13,20,266.60
2021,05,12,13,21,268.80
2021,05,12,13,22,269.00
2021,05,12,13,23,271.00
2021,05,12,13,24,271.00
2021,05,12,13,25,271.00
2021,05,12,13,26,271.30
2021,05,12,13,27,272.70
2021,05,12,13,28,276.00
2021,05,12,13,29,281.70
2021,05,12,13,30,288.70
2021,05,12,13,31,297.20
2021,05,12,13,32,308.60
2021,05,12,13,33,324.40
2021,05,12,13,34,342.00
2021,05,12,13,35,360.70
2021,05,12,13,36,374.80
2021,05,12,13,37,389.30
2021,05,12,13,38,392.50
2021,05,12,13,39,398.90
2021,05,12,13,40,412.30
2021,05,12,13,41,432.10
2021,05,12,13,42,455.10
2021,05,12,13,43,450.50
2021,05,12,13,44,451.30
2021,05,12,13,45,437.70
2021,05,12,13,46,428.60
2021,05,12,13,47,429.60
2021,05,12,13,48,438.00
2021,05,12,13,49,454.50
2021,05,12,13,50,472.10
2021,05,12,13,51,475.00
2021,05,12,13,52,492.00
2021,05,12,13,53,492.00
2021,05,12,13,54,497.00
2021,05,12,13,55,527.00
2021,05,12,13,56,548.40
2021,05,12,13,57,617.00
2021,05,12,13,58,906.20
2021,05,12,13,59,1324.00
2021,05,12,14,00,947.80
2021,05,12,14,01,621.10
2021,05,12,14,02,608.00
2021,05,12,14,03,608.00
2021,05,12,14,04,608.00
2021,05,12,14,05,608.00
2021,05,12,14,06,670.10
2021,05,12,14,07,677.00
2021,05,12,14,08,739.20
2021,05,12,14,09,1299.00
2021,05,12,14,10,1299.00
2021,05,12,14,11,1299.00
2021,05,12,14,12,1299.00
2021,05,12,14,13,1023.20
2021,05,12,14,14,575.00
2021,05,12,14,15,575.00
2021,05,12,14,16,575.00
2021,05,12,14,17,575.00
2021,05,12,14,18,575.00
2021,05,12,14,19,434.00
2021,05,12,14,20,380.20
2021,05,12,14,21,378.00
2021,05,12,14,22,399.50
2021,05,12,14,23,432.00
2021,05,12,14,24,448.20
2021,05,12,14,25,540.00
2021,05,12,14,26,494.30
2021,05,12,14,27,380.00
2021,05,12,14,28,370.00
2021,05,12,14,29,352.70
2021,05,12,14,30,353.70
2021,05,12,14,31,359.90
2021,05,12,14,32,358.70
2021,05,12,14,33,339.80
2021,05,12,14,34,324.90
2021,05,12,14,35,322.90
2021,05,12,14,36,410.80
2021,05,12,14,37,333.30
2021,05,12,14,38,289.40
2021,05,12,14,39,283.70
2021,05,12,14,40,295.80
2021,05,12,14,41,323.00
2021,05,12,14,42,308.00
2021,05,12,14,43,336.30
2021,05,12,14,44,374.00
2021,05,12,14,45,462.00
2021,05,12,14,46,533.50
2021,05,12,14,47,522.00
2021,05,12,14,48,522.00
2021,05,12,14,49,496.50
2021,05,12,14,50,507.00
2021,05,12,14,51,504.60
2021,05,12,14,52,504.00
2021,05,12,14,53,504.00
2021,05,12,14,54,504.00
2021,05,12,14,55,504.00
2021,05,12,14,56,504.00
2021,05,12,14,57,493.70
2021,05,12,14,58,488.20
2021,05,12,14,59,523.00
2021,05,12,15,00,557.00
2021,05,12,15,01,578.00
2021,05,12,15,02,578.00
2021,05,12,15,03,612.30
2021,05,12,15,04,667.10
2021,05,12,15,05,680.00
2021,05,12,15,06,728.00
2021,05,12,15,07,714.90
2021,05,12,15,08,714.00
2021,05,12,15,09,713.10
2021,05,12,15,10,693.00
2021,05,12,15,11,639.00
2021,05,12,15,12,652.30
2021,05,12,15,13,655.80
2021,05,12,15,14,696.00
2021,05,12,15,15,696.00
2021,05,12,15,16,680.40
2021,05,12,15,17,670.00
2021,05,12,15,18,670.00
2021,05,12,15,19,612.10
2021,05,12,15,20,576.80
2021,05,12,15,21,598.30
2021,05,12,15,22,696.20
2021,05,12,15,23,692.30
2021,05,12,15,24,610.00
2021,05,12,15,25,610.00
2021,05,12,15,26,616.60
2021,05,12,15,27,622.30
2021,05,12,15,28,598.30
2021,05,12,15,29,594.00
2021,05,12,15,30,594.00
2021,05,12,15,31,521.30
2021,05,12,15,32,457.00
2021,05,12,15,33,455.00
2021,05,12,15,34,454.70
2021,05,12,15,35,472.00
2021,05,12,15,36,485.90
2021,05,12,15,37,519.90
2021,05,12,15,38,577.60
2021,05,12,15,39,650.00
2021,05,12,15,40,618.00
2021,05,12,15,41,482.00
2021,05,12,15,42,475.00
2021,05,12,15,43,463.70
2021,05,12,15,44,460.70
2021,05,12,15,45,447.30
2021,05,12,15,46,448.10
2021,05,12,15,47,424.00
2021,05,12,15,48,393.00
2021,05,12,15,49,380.10
2021,05,12,15,50,372.40
2021,05,12,15,51,356.50
2021,05,12,15,52,355.00
2021,05,12,15,53,362.00
2021,05,12,15,54,361.70
2021,05,12,15,55,364.10
2021,05,12,15,56,372.60
2021,05,12,15,57,359.70
2021,05,12,15,58,360.90
2021,05,12,15,59,370.40
2021,05,12,16,00,382.50
2021,05,12,16,01,392.10
2021,05,12,16,02,394.80
2021,05,12,16,03,401.00
2021,05,12,16,04,380.40
2021,05,12,16,05,361.90
2021,05,12,16,06,351.00
2021,05,12,16,07,348.10
2021,05,12,16,08,358.60
2021,05,12,16,09,374.00
2021,05,12,16,10,374.00
2021,05,12,16,11,374.00
2021,05,12,16,12,399.30
2021,05,12,16,13,451.40
2021,05,12,16,14,445.10
2021,05,12,16,15,460.50
2021,05,12,16,16,485.50
2021,05,12,16,17,489.20
2021,05,12,16,18,491.40
2021,05,12,16,19,494.00
2021,05,12,16,20,494.00
2021,05,12,16,21,494.00
2021,05,12,16,22,589.20
2021,05,12,16,23,567.60
2021,05,12,16,24,491.00
2021,05,12,16,25,466.90
2021,05,12,16,26,433.90
2021,05,12,16,27,408.00
2021,05,12,16,28,384.50
2021,05,12,16,29,358.10
2021,05,12,16,30,336.80
2021,05,12,16,31,341.80
2021,05,12,16,32,364.70
2021,05,12,16,33,395.50
2021,05,12,16,34,406.00
2021,05,12,16,35,425.70
2021,05,12,16,36,429.00
2021,05,12,16,37,429.00
2021,05,12,16,38,427.10
2021,05,12,16,39,401.90
2021,05,12,16,40,375.80
2021,05,12,16,41,413.00
2021,05,12,16,42,413.00
2021,05,12,16,43,413.00
2021,05,12,16,44,413.00
2021,05,12,16,45,413.00
2021,05,12,16,46,326.70
2021,05,12,16,47,259.50
2021,05,12,16,48,290.20
2021,05,12,16,49,256.80
2021,05,12,16,50,227.60
2021,05,12,16,51,223.20
2021,05,12,16,52,223.00
2021,05,12,16,53,198.10
2021,05,12,16,54,191.10
2021,05,12,16,55,270.50
2021,05,12,16,56,303.30
2021,05,12,16,57,272.00
2021,05,12,16,58,422.90
2021,05,12,16,59,674.90
2021,05,12,17,00,685.60
2021,05,12,17,01,687.00
2021,05,12,17,02,407.00
2021,05,12,17,03,267.00
2021,05,12,17,04,267.00
2021,05,12,17,05,267.00
2021,05,12,17,06,412.80
2021,05,12,17,07,429.00
2021,05,12,17,08,616.30
2021,05,12,17,09,610.30
2021,05,12,17,10,612.20
2021,05,12,17,11,613.00
2021,05,12,17,12,613.00